Regional Weather Roundup
Issued by NWS

Home | Current Version | Previous Version | Graphics & Text | Print | Product List | Glossary On
Versions: 1 2 3 4 5 6 7 8 9 10 11 12 13 14 15 16 17 18 19 20 21 22 23 24 25 26 27 28 29 30 31 32 33 34 35 36 37 38 39 40 41 42 43 44 45 46 47 48 49 50
000
ASUS43 KIND 271609
RWRIN

WEATHER ROUNDUP FOR INDIANA
NATIONAL WEATHER SERVICE INDIANAPOLIS IN
1100 AM EST TUE JAN 27 2015

NOTE: "FAIR" INDICATES FEW OR NO CLOUDS BELOW 12,000 FEET WITH NO
SIGNIFICANT WEATHER AND/OR OBSTRUCTIONS TO VISIBILITY.

* - STATION DOES NOT REPORT WEATHER SUCH AS PRECIPITATION OR FOG.

+ - STATION NOT QUALITY CONTROLLED BY THE NATIONAL WEATHER SERVICE.
    USE DATA WITH CAUTION...ESPECIALLY DEWPOINT AND RELATIVE
    HUMIDITY OBSERVATIONS.

INZ001>003-010>013-019-020-271700-
NORTHWEST INDIANA

CITY           SKY/WX    TMP DP  RH WIND       PRES   REMARKS
GARY /AIRPORT/ CLOUDY    30  14  51 NE8       30.14R WCI  23
KNOX *+        CLOUDY    25  -3  29 NE5       30.13R WCI  20
LA PORTE +     PTSUNNY   27  13  54 NE6       30.14R WCI  21
MICHIGAN CITY+ MOSUNNY   28   5  37 E3        30.15R
MONTICELLO +   CLOUDY    24  14  67 NE6       30.12R WCI  17
RENSSELAER +   CLOUDY    27  23  86 NE8       30.13R WCI  18
VALPARAISO     CLOUDY    25  14  63 NE7       30.13R WCI  17

$$

LMZ046-743>745-271700-
SOUTHERN LAKE MICHIGAN

STATION/POSITION TIME  TEMP WIND        PRES
                       AIR  DIR/SP/G
                 (UTC) (F)  (DEG/KT/KT) (MB)
MICHIGAN CITY    1600   25   20/  7/  8   N/A

$$

INZ004-005-014>016-021>024-271700-
NORTH CENTRAL INDIANA

CITY           SKY/WX    TMP DP  RH WIND       PRES   REMARKS
ELKHART        MOSUNNY   23  10  58 NE9       30.14R WCI  13
GOSHEN         CLOUDY    22  13  68 E9        30.12R WCI  12
LOGANSPORT +   CLOUDY    23  12  63 E6        30.13R WCI  16
PERU/GRISSOM   CLOUDY    22  13  70 E7        30.11R WCI  13
ROCHESTER +    PTSUNNY   28  14  54 CALM      30.12R
SOUTH BEND     MOSUNNY   25  11  55 NE6       30.13R WCI  18
WARSAW +       MOSUNNY   23  12  63 NE5       30.12R WCI  17

$$

INZ006>009-017-018-025>027-271700-
NORTHEAST INDIANA

CITY           SKY/WX    TMP DP  RH WIND       PRES   REMARKS
ANGOLA *+      SUNNY     18  12  79 NE7       30.11R WCI   8
AUBURN +       SUNNY     23  14  68 NE7       30.13R WCI  15
FORT WAYNE     MOSUNNY   21  13  71 E9        30.13R WCI  11
HUNTINGTON +   MOSUNNY   21   9  59 E7        30.12R WCI  12

$$

INZ028-029-035-036-043>045-051>053-271700-
WEST CENTRAL INDIANA

CITY           SKY/WX    TMP DP  RH WIND       PRES   REMARKS
CRAWFORDSVL +  CLOUDY    26  21  81 NE8       30.09R WCI  18
GREENCASTLE +  CLOUDY    28  25  86 NE6       30.08R FOG     WCI  22
LAFAYETTE      CLOUDY    25  21  85 NE8       30.12R WCI  16
TERRE HAUTE    CLOUDY    31  27  85 NE5       30.11R WCI  26

$$

INZ030>032-037>040-046>048-054>057-064-065-271700-
CENTRAL INDIANA

CITY           SKY/WX    TMP DP  RH WIND       PRES   REMARKS
ANDERSON       MOSUNNY   25  12  58 NE12      30.11R WCI  14
CP ATTERBURY + CLOUDY    28  21  74 NE5       30.10R WCI  23
GREENWOOD *+   CLOUDY    27  18  69 CALM      30.09R
INDIANAPOLIS   CLOUDY    24  21  88 NE7       30.09R WCI  16
-EAGLE CREEK   CLOUDY    26  19  74 E6        30.09R WCI  19
KOKOMO *+      CLOUDY    21  14  73 E9        30.11R WCI  11
MARION +       CLOUDY    22  13  68 E5        30.11R WCI  15
MT COMFORT *+  MOSUNNY   25   7  46 E7        30.09R WCI  17
SHELBYVILLE    CLOUDY    26  14  60 E8        30.08R WCI  18
ZIONSVILLE +   CLOUDY    26  13  59 E6        30.09R WCI  19

$$

INZ033-034-041-042-049-050-058-059-271700-
EAST CENTRAL INDIANA

CITY           SKY/WX    TMP DP  RH WIND       PRES   REMARKS
MUNCIE         MOSUNNY   22  12  65 NE3       30.10R

$$

INZ060-061-067>069-081>083-085>088-271700-
SOUTHWEST INDIANA

CITY           SKY/WX    TMP DP  RH WIND       PRES   REMARKS
EVANSVILLE     CLOUDY    35  30  82 N8        30.10R HAZE    WCI  29
HUNTINGBURG *+ CLOUDY    30  27  86 CALM      30.09R
WASHINGTON +   CLOUDY    31  27  87 NE3       30.09R FOG

$$

INZ062-063-066-070>080-084-089>092-271700-
SOUTH CENTRAL AND SOUTHEAST INDIANA

CITY           SKY/WX    TMP DP  RH WIND       PRES   REMARKS
BLOOMINGTON    CLOUDY    30  26  85 NE7       30.08R WCI  23

$$




USA.gov is the U.S. government's official web portal to all federal, state and local government web resources and services.